FREGAT DEB, 45831

Orbit data source: Space-Track

FREGAT DEB, 45831 is space debris in LEO originally from a launch on Mon, 18 Jul 2011 UTC launched from the Tyuratam Missile And Space Complex (TTMTR). Debris objects in space refer to the collection of defunct objects orbiting the Earth. Examples of debris include non-operational satellites, rocket bodies, and fragments generated from explosions, collisions, or faulty payload assembly.

Loading next visibility...
Identifier
45831, 2011-037BR
Orbit
LEO
Country
Flag of CISCIS
Related business
Manufacturer
Lavochkin
Mission
Spacecraft
Bus & Motor
Unknown
Mass
Unknown
Launch date (UTC)
2011-07-18 (14 years ago)
Launch vehicle
Unknown
Launch site
Tyuratam Missile And Space Complex (TTMTR)
Object type
Payload
Rocket body
Debris
Shape & HBR
Unknown shape, 0.1 m
Radar Cross Section
Small (<0.1 m²)

Expand to show TLE details & history
Last TLE update: 2 days ago

TLE from 2 days ago
0 FREGAT DEB
1 45831U 11037BR  25346.70507819  .00004596  00000-0  23752-2 0  9995
2 45831  51.4322 170.4283 1636882  49.6007 323.6558 11.55151619232346
Epoch: 2025-12-12T16:55Z
TLE epoch observation values (Epoch: 2025-12-12T16:55:18.755Z)
Latitude
-0.00001°
Longitude
-165.04272°
Altitude
894.321 km
Speed
7.838 km/s
True Right ascension
11h 21m 42s
True Declination
0° 00' 00"
Sunlit
Object was in daylight at epoch
Visualization orbit readout
Latitude
Unknown
Longitude
Unknown
Altitude
Unknown
Speed
Unknown
Apparent Right ascension
Unknown
Apparent Declination
Unknown
Sunlit
N/A
Visualization observer readout
Local Sidereal Time
12:16:18
Azimuth
Unknown
Elevation
Unknown
Doppler factor
Unknown
Orbital elements
Apogee altitude
3,241.757 km
Perigee altitude
535.425 km
Semi-major axis
8,266.728 km
Eccentricity
0.16369
Inclination
51.4322°
RAAN
170.4283°
Arg. of periapsis
49.6007°
True anomaly
310.48622°
Mean anomaly
323.6558°
Eccentric anomaly
317.29498°
Mean motion
2.88764 °/min
Orbital period
124.67 mins
BSTAR
0.0023752
Loading maneuver chart data...
Computing Atmospheric mass density...
Loading historical data...
Loading historical data...
Loading historical data...
Loading historical data...
Loading historical data...
Loading historical data...
Loading historical data...

Documentation

Showing up to 5 results
|